Regional Weather Roundup
Issued by NWS

Home | Current Version | Previous Version | Graphics & Text | Print | Product List | Glossary On
Versions: 1 2 3 4 5 6 7 8 9 10 11 12 13 14 15 16 17 18 19 20 21 22 23 24 25 26 27
000
ASUS45 KSLC 102310
RWRUT

UTAH REGIONAL WEATHER ROUNDUP
NATIONAL WEATHER SERVICE SALT LAKE CITY UT
400 PM MST SAT DEC 10 2016

UTZ001>011-023>025-110000-

NORTHERN UTAH

CITY           SKY/WX    TMP DP  RH WIND       PRES   REMARKS
BRIGHAM CITY     N/A     40  37  87 E5        29.88F
HILL AFB       RAIN      38  38  97 NE5       29.89S FOG     WCI  35
LOGAN          CLOUDY    42  36  79 S15       29.85S
OGDEN          LGT RAIN  40  39  97 E7        29.89S
SALT LAKE CITY RAIN      45  40  82 W6        29.87R
WENDOVER       CLOUDY    43  36  75 CALM      29.87R
HEBER CITY     MIX PCPN  36  34  93 CALM      29.88S

$$

UTZ011>015-024>027-110000-

CENTRAL/NORTHEAST UTAH

CITY           SKY/WX    TMP DP  RH WIND       PRES   REMARKS
PROVO AIRPORT  LGT RAIN  48  38  68 CALM      29.89F
MOAB/CANYONLAN CLOUDY    37  17  44 CALM      29.97F
DELTA          CLOUDY    52  34  50 S17G23    29.87F
PRICE          MOCLDY    36  19  50 S6        29.97S WCI  31
ROOSEVELT      CLOUDY    32  21  64 E5        29.95S WCI  27
VERNAL         CLOUDY    32  20  61 CALM      29.92S

$$

UTZ013>016-019>022-027-110000-

SOUTHERN UTAH

CITY           SKY/WX    TMP DP  RH WIND       PRES   REMARKS
BRYCE CANYON   MOSUNNY   41  29  62 SE8       30.05S
CEDAR CITY     MOSUNNY   49  34  56 SW18G29   30.01F
MILFORD        MOSUNNY   53  35  50 S26G33    29.96F
ST GEORGE      CLOUDY    57  36  44 S3        30.06F
HANKSVILLE     MOCLDY    36  14  41 NW3       30.00S
BLANDING       MOCLDY    44  28  52 SW5       30.12R

$$

REGIONAL REPORTS     COLORADO/ARIZONA

CITY           SKY/WX    TMP DP  RH WIND       PRES   REMARKS
CRAIG, CO      LGT RAIN  43  29  57 SW20      29.87R
GRAND JUNCTION CLOUDY    35  25  66 CALM      29.99F
RIFLE, CO      CLOUDY    33  25  72 CALM      29.99S
MONTROSE, CO   CLOUDY    40  27  59 NW7       29.98F
CORTEZ, CO     CLOUDY    49  29  46 CALM      30.04F
COLORADO CITY  MOCLDY    54  37  54 MISG      30.09S
PAGE, AZ       MOSUNNY   49  23  36 NE6       30.04F
GRAND CANYON   PTSUNNY   52  36  54 W15       30.11S
KINGMAN, AZ    SUNNY     61  37  41 SW12      30.06F
FLAGSTAFF, AZ  SUNNY     47  31  53 SW16      30.14S

$$

REGIONAL REPORTS    NEVADA/IDAHO/WYOMING

CITY           SKY/WX    TMP DP  RH WIND       PRES   REMARKS
LAS VEGAS, NV  PTSUNNY   58  21  24 VRB3      30.01F
ELY, NY        CLOUDY    45  30  55 VRB3      29.93F
ELKO, NV       LGT RAIN  38  35  89 E7        29.90R WCI  33
POCATELLO, ID  CLOUDY    38  35  89 SW20      29.81S WCI  28
BURLEY, ID     CLOUDY    38  36  92 SW12      29.84S WCI  30
FORT BRIDGER,  CLOUDY    36  36 100 W20G28    29.88R WCI  25
EVANSTON, WY   SNOW      33  31  92 W10       29.87R VSB 1/2 WCI  25
ROCK SPRINGS,  CLOUDY    37  31  78 W32G39    29.84R WCI  24
KEMMERER, WY     N/A     32  32 100 W23G30    29.80F WCI  19

$$




USA.gov is the U.S. government's official web portal to all federal, state and local government web resources and services.